Date String (YYYY-MM-DD hh:mm:ss) UTC,Instrument flags,Ambient pressure (hPa),Sample flow (lpm),Bypass flow (lpm),Sample temperature (°C),Ambient temperature (°C),ASC tube jacket temperature (°C),LED temperature (°C),Box temperature (°C),Sample RH (%),Span deviation,Mass concentration (μg/m³),Mass concentration (μg/m³),Mass concentration (μg/m³)
DateTimeUTC,F1_M11,P_M11,Q1_M11,Q2_M11,T1_M11,T2_M11,T3_M11,T4_M11,T5_M11,U1_M11,ZSPAN_M11,X0_M11,X2_M11,X1_M11
2021-10-08 14:00:00,,0828.2,5.00,0.00,30.6,29.6,00.0,39.7,32.3,14.6,0000.0,0016.42,0005.08,0003.77
2021-10-08 14:01:00,,0828.3,5.00,0.00,30.6,29.6,00.0,39.7,32.3,14.6,0000.0,0016.86,0005.06,0003.75
2021-10-08 14:02:00,,0828.2,4.99,0.00,30.6,29.6,00.0,39.7,32.3,14.6,0000.0,0016.45,0005.06,0003.75
2021-10-08 14:03:00,,0828.3,5.01,0.00,30.6,29.7,00.0,39.7,32.3,14.7,0000.0,0015.77,0005.03,0003.76
2021-10-08 14:04:00,,0828.2,5.01,0.00,30.6,29.7,00.0,39.7,32.3,14.7,0000.0,0014.99,0005.02,0003.78
2021-10-08 14:05:00,,0828.2,5.00,0.00,30.6,29.7,00.0,39.7,32.3,14.8,0000.0,0014.21,0005.08,0003.78
2021-10-08 14:06:00,,0828.2,4.99,0.00,30.6,29.7,00.0,39.7,32.3,14.9,0000.0,0013.76,0005.09,0003.79
2021-10-08 14:07:00,,0828.2,5.00,0.00,30.7,29.7,00.0,39.7,32.4,15.1,0000.0,0013.94,0005.10,0003.79
2021-10-08 14:08:00,,0828.1,5.00,0.00,30.7,29.8,00.0,39.7,32.4,15.3,0000.0,0014.48,0005.09,0003.76
2021-10-08 14:09:00,,0828.1,5.01,0.00,30.7,29.8,00.0,39.7,32.4,15.5,0000.0,0014.46,0005.08,0003.73
2021-10-08 14:10:00,,0828.2,4.99,0.00,30.7,29.8,00.0,39.8,32.4,15.6,0000.0,0014.22,0005.02,0003.68
2021-10-08 14:11:00,,0828.2,5.01,0.00,30.7,29.8,00.0,39.8,32.4,15.7,0000.0,0014.47,0004.93,0003.64
2021-10-08 14:12:00,,0828.2,5.01,0.00,30.7,29.8,00.0,39.8,32.5,16.0,0000.0,0013.86,0004.84,0003.59
2021-10-08 14:13:00,,0828.2,5.00,0.00,30.7,29.9,00.0,39.8,32.5,16.1,0000.0,0012.95,0004.76,0003.55
2021-10-08 14:14:00,,0828.3,5.00,0.00,30.8,29.9,00.0,39.8,32.5,16.2,0000.0,0012.76,0004.72,0003.50
2021-10-08 14:15:00,,0828.3,4.99,0.00,30.8,29.9,00.0,39.8,32.5,16.2,0000.0,0012.88,0004.69,0003.46
2021-10-08 14:16:00,,0828.3,5.01,0.00,30.8,29.9,00.0,39.8,32.5,16.3,0000.0,0012.79,0004.64,0003.40
2021-10-08 14:17:00,,0828.2,5.02,0.00,30.8,29.9,00.0,39.8,32.5,16.4,0000.0,0012.26,0004.51,0003.35
2021-10-08 14:18:00,,0828.2,5.00,0.00,30.8,29.6,00.0,39.9,32.4,16.3,0000.0,0011.26,0004.42,0003.31
2021-10-08 14:19:00,,0828.3,4.99,0.00,30.7,27.6,00.0,39.8,32.0,16.5,0000.0,0010.43,0004.30,0003.26
2021-10-08 14:20:00,,0828.1,5.00,0.00,30.5,26.6,00.0,39.8,31.7,16.7,0000.0,0010.60,0004.26,0003.24
2021-10-08 14:21:00,,0828.1,5.01,0.00,30.4,26.8,00.0,39.7,31.6,16.9,0000.0,0010.58,0004.19,0003.20
2021-10-08 14:22:00,,0828.1,5.00,0.00,30.3,27.2,00.0,39.6,31.7,16.9,0000.0,0010.43,0004.13,0003.16
2021-10-08 14:23:00,,0828.1,5.00,0.00,30.2,27.6,00.0,39.6,31.7,17.0,0000.0,0010.36,0004.11,0003.14
2021-10-08 14:24:00,,0828.1,4.99,0.00,30.2,27.9,00.0,39.5,31.8,17.3,0000.0,0010.66,0004.07,0003.13
2021-10-08 14:25:00,,0828.2,5.01,0.00,30.2,28.2,00.0,39.5,31.8,17.2,0000.0,0010.43,0003.98,0003.10
2021-10-08 14:26:00,,0828.1,4.99,0.00,30.2,28.4,00.0,39.5,31.8,17.3,0000.0,0010.47,0003.92,0003.06
2021-10-08 14:27:00,,0828.2,4.99,0.00,30.2,28.6,00.0,39.5,31.9,17.4,0000.0,0010.78,0003.90,0003.04
2021-10-08 14:28:00,,0828.2,5.00,0.00,30.2,28.8,00.0,39.4,31.9,17.4,0000.0,0010.79,0003.87,0003.02
2021-10-08 14:29:00,,0828.3,5.00,0.00,30.2,28.9,00.0,39.4,31.9,17.5,0000.0,0011.21,0003.84,0003.00
2021-10-08 14:30:00,,0828.3,4.99,0.00,30.3,29.0,00.0,39.4,32.0,17.6,0000.0,0010.98,0003.84,0002.99
2021-10-08 14:31:00,,0828.3,5.00,0.00,30.3,29.1,00.0,39.4,32.0,17.6,0000.0,0009.92,0003.77,0002.97
2021-10-08 14:32:00,,0828.3,5.01,0.00,30.3,29.1,00.0,39.4,32.0,17.6,0000.0,0009.45,0003.72,0002.95
2021-10-08 14:33:00,,0828.4,4.99,0.00,30.3,29.2,00.0,39.4,32.1,17.4,0000.0,0008.96,0003.68,0002.94
2021-10-08 14:34:00,,0828.4,5.01,0.00,30.3,29.3,00.0,39.4,32.1,17.4,0000.0,0008.95,0003.64,0002.92
2021-10-08 14:35:00,,0828.3,4.99,0.00,30.4,29.3,00.0,39.4,32.1,17.4,0000.0,0008.52,0003.63,0002.91
2021-10-08 14:36:00,,0828.3,5.01,0.00,30.4,29.4,00.0,39.4,32.1,17.4,0000.0,0008.69,0003.61,0002.90
2021-10-08 14:37:00,,0828.3,5.00,0.00,30.4,29.4,00.0,39.4,32.1,17.4,0000.0,0008.99,0003.61,0002.90
2021-10-08 14:38:00,,0828.3,4.99,0.00,30.4,29.4,00.0,39.5,32.2,17.4,0000.0,0008.60,0003.61,0002.92
2021-10-08 14:39:00,,0828.3,5.01,0.00,30.4,29.5,00.0,39.5,32.2,17.2,0000.0,0009.09,0003.61,0002.92
2021-10-08 14:40:00,,0828.3,4.99,0.00,30.4,29.5,00.0,39.5,32.2,17.2,0000.0,0008.90,0003.62,0002.95
2021-10-08 14:41:00,,0828.3,5.01,0.00,30.5,29.5,00.0,39.5,32.2,17.2,0000.0,0008.95,0003.65,0002.95
2021-10-08 14:42:00,,0828.4,5.00,0.00,30.5,29.6,00.0,39.5,32.2,17.2,0000.0,0010.71,0003.72,0002.98
2021-10-08 14:43:00,,0828.3,4.99,0.00,30.5,29.6,00.0,39.5,32.3,17.2,0000.0,0012.24,0003.75,0002.99
2021-10-08 14:44:00,,0828.3,5.00,0.00,30.5,29.6,00.0,39.5,32.3,17.2,0000.0,0012.06,0003.77,0003.01
2021-10-08 14:45:00,,0828.4,5.01,0.00,30.5,29.6,00.0,39.5,32.3,17.3,0000.0,0012.27,0003.80,0003.06
2021-10-08 14:46:00,,0828.4,5.00,0.00,30.5,29.6,00.0,39.6,32.3,17.4,0000.0,0012.90,0003.83,0003.11
2021-10-08 14:47:00,,0828.4,5.00,0.00,30.6,29.7,00.0,39.6,32.3,17.4,0000.0,0013.82,0003.87,0003.13
2021-10-08 14:48:00,,0828.4,4.99,0.00,30.6,29.7,00.0,39.6,32.3,17.5,0000.0,0014.39,0003.87,0003.13
2021-10-08 14:49:00,,0828.4,5.01,0.00,30.6,29.7,00.0,39.6,32.4,17.5,0000.0,0014.72,0003.86,0003.14
2021-10-08 14:50:00,,0828.3,4.99,0.00,30.6,29.7,00.0,39.6,32.4,17.4,0000.0,0014.15,0003.86,0003.14
2021-10-08 14:51:00,,0828.3,5.00,0.00,30.6,29.8,00.0,39.6,32.4,17.3,0000.0,0013.90,0003.84,0003.13
2021-10-08 14:52:00,,0828.3,5.01,0.00,30.6,29.8,00.0,39.7,32.4,17.3,0000.0,0014.22,0003.79,0003.13
2021-10-08 14:53:00,,0828.3,4.99,0.00,30.7,29.8,00.0,39.7,32.4,17.4,0000.0,0013.41,0003.80,0003.13
2021-10-08 14:54:00,,0828.3,5.01,0.00,30.7,29.8,00.0,39.7,32.4,17.5,0000.0,0012.86,0003.83,0003.15
2021-10-08 14:55:00,,0828.3,5.00,0.00,30.7,29.8,00.0,39.7,32.4,17.5,0000.0,0013.10,0003.90,0003.16
2021-10-08 14:56:00,,0828.3,5.00,0.00,30.7,29.8,00.0,39.7,32.5,17.4,0000.0,0013.08,0003.95,0003.16
2021-10-08 14:57:00,,0828.3,5.01,0.00,30.7,29.8,00.0,39.7,32.5,17.4,0000.0,0012.71,0004.03,0003.16
2021-10-08 14:58:00,,0828.3,4.99,0.00,30.7,29.8,00.0,39.8,32.5,17.5,0000.0,0011.90,0004.07,0003.17
2021-10-08 14:59:00,,0828.3,5.02,0.00,30.7,29.5,00.0,39.8,32.4,17.4,0000.0,0010.86,0004.12,0003.19
